Presure
238 218 230 216 228 219 214 207 205 205 208 211 218 217 219 226 229 219 226 211 209 210 211 213 215 213 214 223 224 226 214 224 193 223 220 181 182 224 101 101 103 103 101 83
225 226 243 231 223 223 211 215 220 215 220 224 216 208 200 206 215 217 215 222 216 211 213 221 211 209 206 220 217 216 223 190 206 229 222 218 237 206 233 214 227 208 210 214
229 226 244 238 240 220 216 230 229 221 217 212 216 216 217 201 208 211 222 216 214 210 216 220 231 211 208 213 213 222 200 220 226 195 191 222 170 227 95 99 161 116 204 155
225 233 236 245 236 230 221 225 228 219 227 224 213 210 209 206 205 201 211 212 211 199 191 212 212 217 225 211 207 208 208 190 207 222 207 218 226 243 168 202 210 239 93 201
231 232 226 233 239 223 231 245 231 236 222 220 226 225 208 206 203 203 206 212 217 220 214 216 204 201 216 225 217 211 212 218 224 213 209 202 206 231 237 229 233 234 245 216
240 231 239 247 242 249 253 247 245 236 237 223 216 117 173 202 201 205 214 213 216 216 218 222 223 217 217 176 193 217 209 215 215 223 184 220 225 203 230 242 241 223 225 239
256 254 244 251 257 283 276 263 247 251 246 229 224 224 208 93 96 158 218 221 227 229 223 223 224 223 227 232 236 227 215 206 214 214 211 218 215 221 220 230 247 233 217 172
274 286 280 274 265 252 246 241 237 237 236 230 228 228 151 95 130 196 232 235 237 236 240 237 232 231 235 244 244 241 224 217 213 202 212 216 211 223 218 217 243 226 184 117
265 252 254 251 244 234 234 238 239 239 239 235 225 217 217 225 230 238 242 106 195 176 262 219 297 283 269 257 248 245 234 227 225 219 221 225 217 226 226 226 237 246 227 254
245 249 249 247 247 244 240 235 229 226 220 219 221 221 243 248 266 271 273 218 270 214 272 273 278 273 220 260 236 246 239 236 232 225 226 219 219 216 219 237 148 225 239 225
230 227 228 228 218 215 216 223 246 248 253 250 244 237 235 224 102 100 101 102 200 103 312 404 358 248 259 235 246 237 238 234 226 225 222 224 218 225 230 229 227 218 238 241
224 224 273 265 258 251 241 238 232 229 227 313 314 282 286 287 185 300 102 331 335 350 97 366 352 355 364 261 261 256 249 247 239 233 228 222 232 235 221 216 214 240 222 234
261 259 247 239 230 224 219 218 266 265 265 254 264 258 274 92 221 299 85 111 332 313 369 320 343 337 351 362 246 254 252 255 253 260 242 249 248 235 227 221 223 227 234 221
240 229 220 214 214 216 243 258 249 254 244 245 251 278 274 293 326 300 307 342 354 366 375 360 366 356 359 383 371 240 215 236 250 254 241 251 245 235 227 226 235 232 219 219
214 213 215 218 217 236 245 236 236 230 237 236 245 169 265 249 255 344 385 360 380 385 363 358 370 380 409 368 261 323 232 245 228 210 224 245 234 229 232 229 228 223 216 237
219 226 216 214 241 237 237 227 228 226 238 239 246 262 242 241 265 300 313 406 410 388 383 384 400 407 397 89 328 241 237 230 103 220 217 230 221 222 227 234 220 210 229 228
217 215 240 232 207 226 233 217 219 224 220 240 239 255 239 233 267 280 294 296 321 354 364 361 347 332 314 299 255 240 225 218 217 216 225 222 233 234 221 208 214 211 231 233
240 238 223 241 230 227 224 202 218 213 222 227 237 235 258 237 252 265 270 281 292 287 291 293 290 284 270 241 228 228 224 226 224 227 225 236 224 207 210 196 227 203 216 220
220 219 236 178 232 216 210 206 221 222 224 224 229 234 232 247 242 256 244 259 268 272 277 278 257 255 252 247 238 229 231 233 236 238 230 219 215 203 197 215 230 217 220 224
224 248 242 236 166 218 218 219 207 218 211 223 229 227 236 230 249 228 253 246 84 233 257 259 261 262 262 261 259 256 247 195 232 217 217 206 241 236 236 219 222 215 225 240
232 207 239 234 201 204 225 210 224 219 213 221 216 212 220 232 222 246 229 240 244 237 238 240 239 241 238 237 221 185 234 206 221 213 212 218 230 217 228 229 239 250 253 265
232 223 171 174 202 233 150 188 221 218 215 213 193 189 208 221 230 237 241 247 234 246 239 234 230 225 235 249 204 230 242 208 209 210 212 208 210 215 223 238 246 218 209 205
233 211 210 221 191 223 220 211 226 203 211 223 220 227 223 223 223 229 238 239 258 244 233 231 227 240 222 226 243 225 220 216 216 216 218 228 243 253 241 207 204 210 216 218
235 212 232 209 215 196 220 213 189 210 229 218 220 222 237 218 231 224 222 228 237 248 254 256 269 253 248 246 252 259 259 258 258 256 258 214 202 201 207 213 216 217 207 187
231 228 216 217 220 218 207 226 204 210 217 219 233 229 221 222 227 230 233 240 228 215 224 232 234 230 227 225 220 215 210 206 204 202 204 210 213 213 213 203 185 186 188 189
237 222 230 209 185 213 215 235 225 185 218 218 267 218 225 252 237 242 226 237 231 236 229 211 204 204 202 203 205 206 214 216 213 210 215 221 223 194 186 189 191 199 213 234
Wind_Speed
81 83 83 93 90 94 94 96 97 97 95 94 89 81 77 73 69 76 69 77 78 76 76 75 74 73 72 68 65 64 67 62 70 60 62 71 72 61 55 56 57 56 53 35
79 79 85 87 85 87 89 90 92 92 91 87 86 80 77 74 70 72 76 74 79 79 76 75 75 76 73 73 71 68 64 68 68 61 60 60 57 64 60 64 63 67 67 66
80 78 79 80 82 84 85 86 89 88 88 86 83 77 76 75 74 75 77 78 78 79 77 76 75 78 78 76 74 72 70 66 62 71 68 58 56 58 49 49 58 44 69 63
74 75 75 75 79 84 83 84 86 85 85 83 81 76 75 75 75 77 78 78 83 82 75 80 78 77 79 81 79 75 71 75 61 65 63 64 58 54 60 61 58 57 47 70
79 76 72 74 82 79 83 82 83 85 81 79 79 80 70 77 76 79 79 82 86 86 86 85 82 78 80 81 84 81 76 74 71 69 65 70 63 56 58 63 59 59 60 68
77 73 77 77 75 77 78 79 82 80 83 76 78 32 50 76 81 85 85 85 88 89 89 90 87 86 85 64 73 85 79 77 73 70 69 70 63 64 62 59 58 62 63 61
71 73 69 69 68 64 60 64 71 75 78 74 78 76 67 13 11 44 89 91 93 93 90 93 92 91 92 89 87 87 83 80 79 72 71 69 66 63 65 63 59 59 65 46
63 61 56 53 54 55 57 62 69 69 71 74 79 73 64 23 34 72 90 96 99 99 102 98 97 100 99 94 89 88 85 85 83 74 76 73 69 68 65 67 62 63 59 61
40 42 44 46 49 53 56 59 64 67 70 69 71 75 84 88 94 99 101 31 73 59 114 74 97 96 97 97 92 88 81 88 83 81 78 73 72 69 65 66 61 53 64 59
33 37 39 42 45 46 49 55 56 59 62 67 71 79 84 88 92 91 92 63 102 66 103 97 93 89 76 90 84 88 79 84 78 78 76 72 71 66 66 63 45 64 59 62
34 36 39 41 40 43 47 52 44 49 49 56 59 65 75 70 23 22 24 21 40 22 65 52 68 87 89 77 88 85 81 81 74 75 72 70 68 67 62 62 58 64 62 58
31 36 16 15 17 20 28 32 40 48 53 24 26 29 45 45 23 49 16 58 61 70 19 47 37 44 58 84 81 85 83 80 74 74 72 66 69 64 62 64 64 60 61 60
19 17 18 23 25 28 36 39 16 15 19 29 17 25 38 10 34 45 13 25 57 54 45 39 34 44 50 53 77 76 69 60 62 66 68 66 62 59 60 63 62 61 60 62
21 21 24 26 29 29 21 9 14 9 14 20 31 27 32 41 44 41 52 52 50 45 42 38 40 45 48 48 49 72 54 53 54 50 47 50 53 53 56 59 59 59 59 59
20 22 21 20 22 16 9 9 13 15 15 19 30 20 25 27 33 31 38 32 31 24 20 20 20 26 34 45 33 47 54 50 45 44 43 43 44 48 53 55 57 56 55 57
17 13 18 20 10 6 5 4 7 12 20 20 29 35 21 23 34 41 43 17 9 3 6 12 17 25 33 20 49 53 50 43 29 44 44 38 42 48 51 53 52 50 56 57
17 15 11 12 11 8 5 12 5 9 14 24 28 35 18 17 40 42 43 40 40 35 33 35 38 41 44 45 42 43 40 39 40 41 40 40 39 41 43 46 52 51 55 56
10 12 12 17 16 13 7 15 2 10 14 21 24 26 36 18 28 36 38 40 38 33 34 34 36 37 35 33 32 33 35 37 39 38 37 33 30 32 48 43 51 50 52 56
16 13 10 17 19 14 16 13 1 6 11 13 20 27 26 32 21 28 23 31 34 36 34 28 25 24 25 26 29 32 35 35 32 26 29 33 36 44 47 52 55 52 54 56
17 16 15 16 20 16 17 9 12 6 7 13 15 19 27 20 24 13 22 21 21 20 26 26 25 22 19 18 18 18 22 28 23 30 31 33 26 35 48 46 50 55 61 66
17 9 13 11 9 13 15 9 4 8 7 9 7 8 14 21 15 17 9 13 14 13 15 17 16 14 12 13 19 30 21 25 29 27 36 37 40 40 46 45 54 57 62 58
19 14 20 20 17 19 13 5 13 12 9 6 9 13 9 11 13 10 11 7 4 6 9 12 12 14 8 9 17 13 26 20 24 30 32 34 41 46 52 58 54 39 42 45
22 14 17 16 7 18 21 12 15 12 8 10 10 13 9 9 9 9 6 7 4 3 4 5 8 13 11 12 21 23 23 24 29 34 38 44 50 52 45 37 39 43 46 49
24 19 18 17 17 5 17 12 15 8 15 15 11 10 14 6 9 3 5 5 6 2 3 6 9 15 19 21 24 27 28 30 31 31 33 26 29 33 37 40 44 46 47 49
29 23 25 25 26 23 9 23 12 14 17 15 19 15 6 7 6 5 3 4 1 8 4 2 5 6 6 6 6 7 10 14 18 22 26 30 33 37 41 42 44 47 51 56
27 29 34 26 15 15 18 25 22 16 22 18 30 8 10 16 10 10 3 5 2 1 3 2 4 5 7 10 12 15 17 20 24 28 32 34 37 39 42 47 51 54 58 63
Wind_Direction
235 234 237 236 237 239 241 244 248 251 252 253 254 256 258 260 258 258 257 259 260 259 259 262 264 264 263 263 262 261 259 264 253 264 266 254 258 264 255 254 256 259 262 265
234 236 237 239 238 240 241 243 245 248 251 252 255 254 255 257 259 258 257 256 255 259 259 256 259 263 264 266 265 263 263 262 264 266 265 266 267 261 264 262 264 263 264 266
236 238 241 240 241 241 242 245 246 248 250 252 253 254 256 256 258 258 259 258 256 257 259 259 254 259 264 265 264 264 253 262 263 259 257 265 263 268 265 259 261 259 262 257
235 241 241 241 240 242 244 246 247 247 250 251 252 251 254 254 258 256 260 260 259 259 259 258 258 258 254 259 262 262 262 253 256 263 264 265 266 271 263 265 265 269 269 263
234 238 239 242 241 243 244 245 249 249 249 252 255 254 249 257 257 258 258 258 259 259 258 259 259 260 258 254 256 261 261 262 264 261 261 262 260 270 273 267 266 265 266 265
233 236 240 242 243 246 248 248 249 250 252 253 255 265 256 255 258 259 257 257 257 259 260 260 259 259 260 263 259 257 260 260 260 262 263 265 267 262 272 278 274 266 267 269
235 237 239 243 247 247 245 247 250 252 253 255 257 259 258 219 252 259 259 261 262 261 260 263 264 263 262 260 256 252 257 260 260 261 260 265 267 269 269 275 279 271 266 270
237 239 237 238 240 246 247 251 253 255 256 255 259 261 249 231 262 260 261 262 262 262 262 259 260 262 261 258 253 250 252 256 260 261 263 265 266 270 269 270 280 273 271 264
222 230 234 239 244 249 252 253 257 258 260 260 263 265 264 264 263 263 264 278 265 261 264 258 260 257 256 254 253 249 247 249 254 260 261 264 265 268 272 276 276 276 274 280
223 230 238 241 245 250 253 258 262 264 262 263 262 263 267 267 267 269 270 266 268 260 264 262 259 254 251 250 249 249 246 249 252 254 258 260 263 266 269 271 267 273 275 276
228 235 240 245 251 256 258 259 263 267 268 269 268 269 271 270 223 238 240 256 282 279 286 272 260 248 247 245 244 246 244 248 252 255 257 259 262 267 268 269 268 271 276 277
233 238 215 215 220 233 246 254 257 265 270 304 298 289 277 281 307 303 303 297 290 288 300 266 250 249 239 238 236 240 244 247 251 252 256 259 264 264 264 266 271 275 277 277
177 181 191 210 225 239 246 256 286 325 345 310 323 313 321 280 311 309 292 300 291 288 269 265 248 242 237 232 231 232 236 241 246 247 253 257 257 258 260 266 270 271 271 278
184 200 216 228 240 253 281 276 294 360 333 328 327 354 327 325 310 309 302 292 291 279 273 256 243 233 228 215 203 234 234 235 240 245 250 251 251 254 258 264 264 267 275 279
216 225 235 246 257 265 245 301 315 312 345 333 355 334 10 8 8 342 310 300 294 260 231 223 213 225 210 189 198 202 226 226 237 252 249 246 247 253 257 260 265 270 278 279
225 232 245 258 229 221 178 246 14 359 10 4 13 4 18 15 12 16 17 359 357 162 208 193 212 182 163 271 173 210 218 226 267 246 253 247 254 257 258 262 270 275 276 277
232 238 196 228 172 189 115 266 293 350 325 22 27 17 17 22 27 27 33 39 54 80 99 112 125 133 144 153 183 201 222 235 241 247 248 252 255 257 261 264 269 273 275 279
209 212 230 184 189 188 208 283 314 311 20 8 19 29 18 27 32 33 36 45 54 66 81 97 111 124 142 177 199 205 219 227 237 240 245 250 248 267 265 263 267 274 279 283
244 247 187 236 188 226 250 262 261 360 16 7 21 22 23 18 30 39 52 47 56 66 75 89 111 132 151 171 192 207 217 226 233 237 239 240 241 252 265 274 282 281 286 286
238 205 189 196 246 217 230 212 261 305 289 16 24 29 16 22 18 39 42 64 279 63 78 88 98 111 130 155 175 189 204 221 219 233 241 250 239 252 249 276 280 283 286 288
214 203 179 195 204 224 203 252 256 268 295 337 349 1 22 10 21 14 37 60 78 95 105 107 112 114 151 170 196 226 215 228 224 244 253 256 253 276 282 286 286 285 287 285
203 214 231 242 234 210 265 24 237 255 261 316 305 309 359 355 355 357 6 22 79 131 142 145 153 172 138 128 239 227 240 232 251 259 266 271 276 279 281 279 279 286 288 287
212 229 190 184 156 206 214 250 234 260 297 283 308 299 317 343 349 6 335 337 360 210 220 200 185 198 231 226 223 229 240 244 247 251 258 261 260 262 266 283 286 285 287 289
210 236 207 257 237 308 242 276 248 293 284 293 310 302 319 17 325 349 34 7 322 332 187 225 233 222 224 235 243 248 249 250 249 251 257 260 272 276 278 281 283 285 288 288
224 213 231 237 236 251 245 247 247 289 293 303 294 297 324 357 360 357 320 312 312 60 84 175 180 169 178 196 229 252 260 264 267 272 276 277 278 278 279 283 286 289 292 293
231 227 226 246 213 260 276 263 280 275 283 289 310 326 316 311 301 311 346 313 161 251 235 310 325 306 296 293 289 287 271 270 274 277 274 276 281 285 288 289 290 292 297 299